Location: Newark
(47.5833°N, 8.1500°E)
Time: 17:27:02
(UTC+00:00)

Transit 2A - Pass Details

Date: 27 October 2020
Orbit: 595 x 964 km, 66.7° (Epoch: 01 December)

Event Time Altitude Azimuth Distance (km) Brightness Sun altitude
Rises 05:41:31 0° 313° (NW) 3,605 - -4.5°
Exits shadow 05:41:42 - 314° (NW) 3,557 8.9 -4.5°
Reaches altitude 10° 05:46:05 10° 343° (NNW) 2,597 8.4 -3.8°
Maximum altitude 05:48:21 12° 6° (N) 2,409 8.5 -3.4°
Drops below altitude 10° 05:50:34 10° 28° (NNE) 2,514 8.9 -3.1°
Sets 05:54:47 0° 59° (ENE) 3,354 10.0 -2.4°
